| time (UTC) | temp C | wind direction | speed KPH | gust KPH | rain 1hr cm | rain 24hr cm | rain mn cm | humidity % | barometer mb |
| 20260906063740 | 17 | 340 | 16.1 | 0.0 | 0.00 | 0.00 | 0.00 | 77 | 1018.0 |
| 20260906062739 | 17 | 10 | 4.8 | 0.0 | 0.00 | 0.00 | 0.00 | 80 | 1018.0 |
| 20260906061738 | 17 | 10 | 4.8 | 0.0 | 0.00 | 0.00 | 0.00 | 81 | 1018.0 |
| 20260906060737 | 17 | 0 | 3.2 | 0.0 | 0.00 | 0.00 | 0.00 | 82 | 1018.0 |
| 20260906055737 | 17 | 0 | 3.2 | 0.0 | 0.00 | 0.00 | 0.00 | 83 | 1018.0 |
| 20260906054736 | 17 | 0 | 3.2 | 0.0 | 0.00 | 0.00 | 0.00 | 84 | 1018.0 |
| 20260906053734 | 14 | 350 | 27.4 | 0.0 | 0.00 | 0.00 | 0.00 | 89 | 1018.0 |
| 20260906052734 | 14 | 350 | 27.4 | 0.0 | 0.00 | 0.00 | 0.00 | 89 | 1018.0 |
| 20260906051733 | 14 | 350 | 27.4 | 0.0 | 0.00 | 0.00 | 0.00 | 90 | 1018.0 |
| 20260906050732 | 14 | 350 | 27.4 | 0.0 | 0.00 | 0.00 | 0.00 | 90 | 1018.0 |
| 20260906045731 | 14 | 350 | 27.4 | 0.0 | 0.00 | 0.00 | 0.00 | 90 | 1018.0 |
| 20260906044731 | 14 | 350 | 27.4 | 0.0 | 0.00 | 0.00 | 0.00 | 89 | 1018.0 |
| 20260906043730 | 14 | 350 | 27.4 | 0.0 | 0.00 | 0.00 | 0.00 | 89 | 1018.0 |
| 20260906042729 | 14 | 350 | 27.4 | 0.0 | 0.00 | 0.00 | 0.00 | 89 | 1018.0 |
| 20260906041728 | 14 | 350 | 27.4 | 0.0 | 0.00 | 0.00 | 0.00 | 89 | 1018.0 |
| 20260906040727 | 14 | 350 | 27.4 | 0.0 | 0.00 | 0.00 | 0.00 | 89 | 1018.0 |
| 20260906035726 | 14 | 350 | 27.4 | 0.0 | 0.00 | 0.00 | 0.00 | 89 | 1018.0 |
| 20260906034725 | 14 | 350 | 27.4 | 0.0 | 0.00 | 0.00 | 0.00 | 89 | 1017.0 |
| 20260906033725 | 14 | 350 | 27.4 | 0.0 | 0.00 | 0.00 | 0.00 | 89 | 1017.0 |
| 20260906032724 | 14 | 350 | 27.4 | 0.0 | 0.00 | 0.00 | 0.00 | 88 | 1017.0 |
| 20260906031723 | 14 | 350 | 27.4 | 0.0 | 0.00 | 0.00 | 0.00 | 88 | 1017.0 |
| 20260906030722 | 14 | 350 | 27.4 | 0.0 | 0.00 | 0.00 | 0.00 | 88 | 1017.0 |
| 20260906025721 | 15 | 350 | 27.4 | 0.0 | 0.00 | 0.00 | 0.00 | 88 | 1017.0 |
| 20260906024720 | 15 | 350 | 27.4 | 0.0 | 0.00 | 0.00 | 0.00 | 88 | 1017.0 |
| 20260906023720 | 15 | 350 | 27.4 | 0.0 | 0.00 | 0.00 | 0.00 | 88 | 1017.0 |
| 20260906022719 | 15 | 350 | 27.4 | 0.0 | 0.00 | 0.00 | 0.00 | 88 | 1017.0 |
| 20260906021718 | 15 | 350 | 27.4 | 0.0 | 0.00 | 0.00 | 0.00 | 88 | 1017.0 |
| 20260906020718 | 15 | 350 | 27.4 | 0.0 | 0.00 | 0.00 | 0.00 | 88 | 1017.0 |
| 20260906015717 | 15 | 350 | 27.4 | 0.0 | 0.00 | 0.00 | 0.00 | 88 | 1017.0 |
| 20260906014716 | 16 | 350 | 27.4 | 0.0 | 0.00 | 0.00 | 0.00 | 88 | 1017.0 |
| 20260906013716 | 16 | 350 | 27.4 | 0.0 | 0.00 | 0.00 | 0.00 | 88 | 1017.0 |
| 20260906012714 | 16 | 350 | 27.4 | 0.0 | 0.00 | 0.00 | 0.00 | 88 | 1017.0 |
| 20260906011714 | 16 | 350 | 27.4 | 0.0 | 0.00 | 0.00 | 0.00 | 88 | 1017.0 |
| 20260906010713 | 16 | 350 | 27.4 | 0.0 | 0.00 | 0.00 | 0.00 | 88 | 1017.0 |
| 20260906005711 | 16 | 350 | 27.4 | 0.0 | 0.00 | 0.00 | 0.00 | 88 | 1017.0 |
| 20260906004711 | 16 | 350 | 27.4 | 0.0 | 0.00 | 0.00 | 0.00 | 88 | 1017.0 |
| 20260906003710 | 16 | 350 | 27.4 | 0.0 | 0.00 | 0.00 | 0.00 | 88 | 1017.0 |
| 20260906002709 | 16 | 350 | 27.4 | 0.0 | 0.00 | 0.00 | 0.00 | 88 | 1017.0 |
| 20260906001709 | 16 | 350 | 27.4 | 0.0 | 0.00 | 0.00 | 0.00 | 88 | 1017.0 |
| 20260906000708 | 16 | 350 | 27.4 | 0.0 | 0.00 | 0.00 | 0.00 | 88 | 1017.0 |
| 20260905235707 | 16 | 350 | 27.4 | 0.0 | 0.00 | 0.00 | 0.00 | 88 | 1017.0 |
| 20260905234706 | 16 | 350 | 27.4 | 0.0 | 0.00 | 0.00 | 0.00 | 88 | 1017.0 |
| 20260905233705 | 16 | 350 | 27.4 | 0.0 | 0.00 | 0.00 | 0.00 | 88 | 1017.0 |
| 20260905232704 | 16 | 350 | 27.4 | 0.0 | 0.00 | 0.00 | 0.00 | 88 | 1017.0 |
| 20260905231703 | 16 | 350 | 27.4 | 0.0 | 0.00 | 0.00 | 0.00 | 88 | 1017.0 |
| 20260905230703 | 16 | 350 | 27.4 | 0.0 | 0.00 | 0.00 | 0.00 | 88 | 1017.0 |
| 20260905225702 | 16 | 350 | 27.4 | 0.0 | 0.00 | 0.00 | 0.00 | 88 | 1017.0 |
| 20260905224701 | 17 | 350 | 27.4 | 0.0 | 0.00 | 0.00 | 0.00 | 88 | 1017.0 |
| 20260905223701 | 17 | 350 | 27.4 | 0.0 | 0.00 | 0.00 | 0.00 | 87 | 1017.0 |
| 20260905222700 | 17 | 350 | 27.4 | 0.0 | 0.00 | 0.00 | 0.00 | 87 | 1017.0 |
| 20260905221659 | 17 | 350 | 27.4 | 0.0 | 0.00 | 0.00 | 0.00 | 87 | 1017.0 |
| 20260905220658 | 17 | 350 | 27.4 | 0.0 | 0.00 | 0.00 | 0.00 | 87 | 1017.0 |
| 20260905215657 | 17 | 350 | 27.4 | 0.0 | 0.00 | 0.00 | 0.00 | 87 | 1017.0 |
| 20260905214657 | 17 | 350 | 27.4 | 0.0 | 0.10 | 0.00 | 0.00 | 87 | 1017.0 |
| 20260905213656 | 17 | 350 | 27.4 | 0.0 | 0.00 | 0.00 | 0.00 | 87 | 1017.0 |
| 20260905212654 | 17 | 350 | 27.4 | 0.0 | 0.00 | 0.00 | 0.00 | 86 | 1017.0 |
| 20260905211654 | 17 | 350 | 27.4 | 0.0 | 0.00 | 0.00 | 0.00 | 86 | 1017.0 |
| 20260905210652 | 17 | 350 | 27.4 | 0.0 | 0.00 | 0.00 | 0.00 | 86 | 1017.0 |
| 20260905205651 | 17 | 350 | 27.4 | 0.0 | 0.00 | 0.00 | 0.00 | 85 | 1017.0 |
| 20260905204650 | 17 | 350 | 27.4 | 0.0 | 0.00 | 0.00 | 0.00 | 85 | 1017.0 |
| 20260905203650 | 17 | 350 | 27.4 | 0.0 | 0.00 | 0.00 | 0.00 | 85 | 1017.0 |
| 20260905202649 | 17 | 350 | 27.4 | 0.0 | 0.00 | 0.00 | 0.00 | 84 | 1017.0 |
| 20260905201648 | 17 | 350 | 27.4 | 0.0 | 0.23 | 0.00 | 0.00 | 83 | 1017.0 |
| 20260905200647 | 18 | 350 | 27.4 | 0.0 | 0.41 | 0.00 | 0.00 | 82 | 1017.0 |
| 20260905195646 | 18 | 350 | 27.4 | 0.0 | 1.78 | 0.00 | 0.00 | 81 | 1017.0 |
| 20260905194646 | 18 | 350 | 27.4 | 0.0 | 0.53 | 0.00 | 0.00 | 80 | 1017.0 |
| 20260905193644 | 18 | 350 | 27.4 | 0.0 | 0.05 | 0.00 | 0.00 | 78 | 1017.0 |
| 20260905192643 | 18 | 350 | 27.4 | 0.0 | 0.00 | 0.00 | 0.00 | 76 | 1016.0 |
| 20260905191642 | 19 | 350 | 27.4 | 0.0 | 0.28 | 0.00 | 0.00 | 74 | 1016.0 |
| 20260905190641 | 20 | 350 | 27.4 | 0.0 | 0.33 | 0.00 | 0.00 | 71 | 1016.0 |
| 20260905185641 | 20 | 350 | 27.4 | 0.0 | 1.78 | 0.00 | 0.00 | 68 | 1016.0 |
| 20260905184640 | 21 | 350 | 27.4 | 0.0 | 0.23 | 0.00 | 0.00 | 64 | 1016.0 |
| 20260905183639 | 21 | 350 | 27.4 | 0.0 | 0.36 | 0.00 | 0.00 | 59 | 1016.0 |
| 20260905182638 | 22 | 350 | 27.4 | 0.0 | 1.45 | 0.00 | 0.00 | 53 | 1016.0 |
| 20260905181637 | 22 | 350 | 27.4 | 0.0 | 0.00 | 0.00 | 0.00 | 48 | 1015.0 |
| 20260905180637 | 22 | 350 | 27.4 | 0.0 | 0.00 | 0.00 | 0.00 | 47 | 1015.0 |
| 20260905175636 | 22 | 360 | 27.4 | 0.0 | 0.00 | 0.00 | 0.00 | 46 | 1015.0 |
| 20260905174635 | 22 | 360 | 27.4 | 0.0 | 0.10 | 0.00 | 0.00 | 46 | 1015.0 |
| 20260905173634 | 23 | 10 | 38.6 | 57.9 | 0.00 | 0.00 | 0.00 | 41 | 1015.0 |
| 20260905172634 | 23 | 10 | 38.6 | 57.9 | 0.00 | 0.00 | 0.00 | 41 | 1014.0 |
| 20260905171633 | 24 | 10 | 38.6 | 57.9 | 0.00 | 0.00 | 0.00 | 41 | 1014.0 |
| 20260905170632 | 24 | 10 | 38.6 | 57.9 | 0.00 | 0.00 | 0.00 | 43 | 1014.0 |
| 20260905165631 | 26 | 350 | 37.0 | 56.3 | 0.00 | 0.00 | 0.00 | 47 | 1014.0 |
| 20260905164630 | 26 | 350 | 37.0 | 56.3 | 0.00 | 0.00 | 0.00 | 47 | 1013.0 |
| 20260905163630 | 27 | 350 | 37.0 | 56.3 | 0.00 | 0.00 | 0.00 | 34 | 1013.0 |
| 20260905162629 | 30 | 240 | 14.5 | 0.0 | 0.00 | 0.00 | 0.00 | 29 | 1012.0 |
| 20260905161628 | 30 | 240 | 14.5 | 0.0 | 0.00 | 0.00 | 0.00 | 29 | 1012.0 |
| 20260905160627 | 31 | 240 | 14.5 | 0.0 | 0.00 | 0.00 | 0.00 | 29 | 1012.0 |
| 20260905155627 | 31 | 240 | 14.5 | 0.0 | 0.00 | 0.00 | 0.00 | 29 | 1012.0 |
| 20260905154626 | 31 | 240 | 14.5 | 0.0 | 0.00 | 0.00 | 0.00 | 29 | 1012.0 |
| 20260905153625 | 33 | 270 | 20.9 | 0.0 | 0.00 | 0.00 | 0.00 | 13 | 1012.0 |
| 20260905152625 | 33 | 270 | 20.9 | 0.0 | 0.00 | 0.00 | 0.00 | 13 | 1012.0 |
| 20260905151624 | 33 | 270 | 20.9 | 0.0 | 0.00 | 0.00 | 0.00 | 13 | 1012.0 |
| 20260905150624 | 33 | 270 | 20.9 | 0.0 | 0.00 | 0.00 | 0.00 | 14 | 1012.0 |
| 20260905145622 | 33 | 270 | 20.9 | 0.0 | 0.00 | 0.00 | 0.00 | 16 | 1012.0 |
| 20260905144622 | 33 | 270 | 20.9 | 0.0 | 0.00 | 0.00 | 0.00 | 19 | 1012.0 |
| 20260905143621 | 33 | 270 | 20.9 | 0.0 | 0.00 | 0.00 | 0.00 | 19 | 1012.0 |
| 20260905142620 | 34 | 270 | 20.9 | 0.0 | 0.00 | 0.00 | 0.00 | 19 | 1011.0 |
| 20260905141620 | 34 | 270 | 20.9 | 0.0 | 0.00 | 0.00 | 0.00 | 19 | 1011.0 |
| 20260905140618 | 35 | 270 | 20.9 | 0.0 | 0.00 | 0.00 | 0.00 | 19 | 1011.0 |
| 20260905135618 | 35 | 270 | 20.9 | 0.0 | 0.00 | 0.00 | 0.00 | 19 | 1011.0 |
| 20260905134617 | 35 | 270 | 20.9 | 0.0 | 0.00 | 0.00 | 0.00 | 19 | 1012.0 |
| 20260905133616 | 34 | 270 | 20.9 | 0.0 | 0.00 | 0.00 | 0.00 | 19 | 1012.0 |
| 20260905132615 | 33 | 270 | 20.9 | 0.0 | 0.00 | 0.00 | 0.00 | 19 | 1012.0 |
| 20260905131614 | 33 | 270 | 20.9 | 0.0 | 0.00 | 0.00 | 0.00 | 19 | 1012.0 |
| 20260905130614 | 33 | 270 | 20.9 | 0.0 | 0.00 | 0.00 | 0.00 | 19 | 1012.0 |
| 20260905125612 | 33 | 270 | 20.9 | 0.0 | 0.00 | 0.00 | 0.00 | 19 | 1012.0 |
| 20260905124612 | 33 | 270 | 20.9 | 0.0 | 0.00 | 0.00 | 0.00 | 19 | 1012.0 |
| 20260905123611 | 33 | 270 | 20.9 | 0.0 | 0.00 | 0.00 | 0.00 | 19 | 1012.0 |
| 20260905122610 | 33 | 270 | 20.9 | 0.0 | 0.00 | 0.00 | 0.00 | 19 | 1013.0 |
| 20260905121609 | 33 | 270 | 20.9 | 0.0 | 0.00 | 0.00 | 0.00 | 19 | 1013.0 |
| 20260905120608 | 33 | 270 | 20.9 | 0.0 | 0.00 | 0.00 | 0.00 | 19 | 1013.0 |
| 20260905115608 | 33 | 270 | 20.9 | 0.0 | 0.00 | 0.00 | 0.00 | 19 | 1013.0 |
| 20260905114606 | 33 | 270 | 20.9 | 0.0 | 0.00 | 0.00 | 0.00 | 19 | 1013.0 |
| 20260905113606 | 33 | 270 | 20.9 | 0.0 | 0.00 | 0.00 | 0.00 | 19 | 1013.0 |
| 20260905112604 | 33 | 270 | 20.9 | 0.0 | 0.00 | 0.00 | 0.00 | 19 | 1013.0 |
| 20260905111603 | 33 | 270 | 20.9 | 0.0 | 0.00 | 0.00 | 0.00 | 19 | 1013.0 |
| 20260905110602 | 33 | 270 | 20.9 | 0.0 | 0.00 | 0.00 | 0.00 | 19 | 1013.0 |
| 20260905105602 | 33 | 270 | 20.9 | 0.0 | 0.00 | 0.00 | 0.00 | 19 | 1013.0 |
| 20260905104601 | 33 | 270 | 20.9 | 0.0 | 0.00 | 0.00 | 0.00 | 19 | 1013.0 |
| 20260905103600 | 33 | 270 | 20.9 | 0.0 | 0.00 | 0.00 | 0.00 | 19 | 1013.0 |
| 20260905102559 | 33 | 270 | 20.9 | 0.0 | 0.00 | 0.00 | 0.00 | 19 | 1013.0 |
| 20260905101559 | 33 | 270 | 20.9 | 0.0 | 0.00 | 0.00 | 0.00 | 19 | 1013.0 |
| 20260905100558 | 33 | 270 | 20.9 | 0.0 | 0.00 | 0.00 | 0.00 | 19 | 1013.0 |
| 20260905095557 | 33 | 270 | 20.9 | 0.0 | 0.00 | 0.00 | 0.00 | 19 | 1013.0 |
| 20260905094557 | 33 | 270 | 20.9 | 0.0 | 0.00 | 0.00 | 0.00 | 19 | 1014.0 |
| 20260905093556 | 33 | 270 | 20.9 | 0.0 | 0.00 | 0.00 | 0.00 | 19 | 1014.0 |
| 20260905092555 | 32 | 270 | 20.9 | 0.0 | 0.00 | 0.00 | 0.00 | 19 | 1014.0 |
| 20260905091554 | 32 | 270 | 20.9 | 0.0 | 0.00 | 0.00 | 0.00 | 19 | 1014.0 |
| 20260905090554 | 32 | 270 | 20.9 | 0.0 | 0.00 | 0.00 | 0.00 | 19 | 1014.0 |
| 20260905085552 | 32 | 270 | 20.9 | 0.0 | 0.00 | 0.00 | 0.00 | 19 | 1014.0 |
| 20260905084552 | 32 | 270 | 20.9 | 0.0 | 0.00 | 0.00 | 0.00 | 19 | 1014.0 |
| 20260905083551 | 27 | 280 | 20.9 | 0.0 | 0.00 | 0.00 | 0.00 | 32 | 1014.0 |
| 20260905082550 | 27 | 280 | 20.9 | 0.0 | 0.00 | 0.00 | 0.00 | 32 | 1015.0 |
| 20260905081550 | 27 | 280 | 20.9 | 0.0 | 0.00 | 0.00 | 0.00 | 32 | 1015.0 |
| 20260905080549 | 27 | 280 | 20.9 | 0.0 | 0.00 | 0.00 | 0.00 | 32 | 1014.0 |
| 20260905075548 | 27 | 280 | 20.9 | 0.0 | 0.00 | 0.00 | 0.00 | 34 | 1014.0 |
| 20260905074547 | 26 | 280 | 20.9 | 0.0 | 0.00 | 0.00 | 0.00 | 37 | 1014.0 |
| 20260905073546 | 26 | 260 | 19.3 | 0.0 | 0.00 | 0.00 | 0.00 | 39 | 1014.0 |
| 20260905072544 | 26 | 260 | 19.3 | 0.0 | 0.00 | 0.00 | 0.00 | 40 | 1015.0 |
| 20260905071544 | 26 | 260 | 19.3 | 0.0 | 0.00 | 0.00 | 0.00 | 42 | 1015.0 |
| 20260905070543 | 26 | 260 | 12.9 | 0.0 | 0.00 | 0.00 | 0.00 | 44 | 1015.0 |
| 20260905065542 | 26 | 260 | 12.9 | 0.0 | 0.00 | 0.00 | 0.00 | 45 | 1015.0 |
| 20260905064542 | 26 | 260 | 12.9 | 0.0 | 0.00 | 0.00 | 0.00 | 46 | 1015.0 |